When you browse on this site, cookies collect data to enhance your experience and personalize the content and advertising you see.
Visit our Privacy Policy to learn more. By continuing to use the site, you agree to this use of cookies and data.
  • en Suisse
  • Liste des pays
  • À 7 jours
  • Température de l'eau
  • Carte météo
  • Widgets météo
  • user-avatar
    Se connecter

    Météo par heure à Yenakievo

    Ce jour, 22 Février, Samedi

    Heure Température Précipitation Vent Pression Humidité
    00:00 0°C° 0.1 mm 3 m/s 747 mmHg 98%
    01:00 0°C° 0.1 mm 3 m/s 747 mmHg 98%
    02:00 -1°C° 0.1 mm 4 m/s 747 mmHg 97%
    03:00 -2°C° 0 mm 4 m/s 747 mmHg 96%
    04:00 -1°C° 0.1 mm 3 m/s 747 mmHg 97%
    05:00 -1°C° 0.1 mm 3 m/s 747 mmHg 97%
    06:00 -1°C° 0.1 mm 3 m/s 747 mmHg 98%
    07:00 -1°C° 0.1 mm 3 m/s 748 mmHg 98%
    08:00 -1°C° 0.1 mm 3 m/s 748 mmHg 98%
    09:00 0°C° 0 mm 3 m/s 748 mmHg 99%
    10:00 0°C° 0.1 mm 3 m/s 748 mmHg 99%
    11:00 0°C° 0.1 mm 3 m/s 748 mmHg 99%
    12:00 0°C° 0.1 mm 3 m/s 748 mmHg 98%
    13:00 0°C° 0.2 mm 3 m/s 748 mmHg 99%
    14:00 0°C° 0.2 mm 3 m/s 748 mmHg 99%
    15:00 +1°C° 0.2 mm 2 m/s 748 mmHg 99%
    16:00 +1°C° 0.5 mm 2 m/s 748 mmHg 99%
    17:00 -1°C° 0.5 mm 2 m/s 748 mmHg 99%
    18:00 -1°C° 0.5 mm 2 m/s 748 mmHg 99%
    19:00 -1°C° 0.2 mm 2 m/s 748 mmHg 98%
    20:00 -1°C° 0.2 mm 2 m/s 748 mmHg 98%
    21:00 -1°C° 0.2 mm 2 m/s 749 mmHg 98%
    22:00 -1°C° 0 mm 2 m/s 748 mmHg 98%
    23:00 -1°C° 0 mm 2 m/s 748 mmHg 98%

    Demain, 23 Février, Dimanche

    Heure Température Précipitation Vent Pression Humidité
    00:00 +1°C° 0 mm 1 m/s 748 mmHg 98%
    01:00 +1°C° 0 mm 1 m/s 747 mmHg 98%
    02:00 +1°C° 0 mm 1 m/s 747 mmHg 98%
    03:00 +1°C° 0 mm 1 m/s 747 mmHg 98%
    04:00 +1°C° 0 mm 1 m/s 747 mmHg 98%
    05:00 -1°C° 0 mm 2 m/s 746 mmHg 98%
    06:00 -1°C° 0 mm 2 m/s 746 mmHg 97%
    07:00 -1°C° 0 mm 2 m/s 746 mmHg 97%
    08:00 -1°C° 0 mm 2 m/s 746 mmHg 97%
    09:00 -1°C° 0 mm 3 m/s 746 mmHg 96%
    10:00 0°C° 0 mm 3 m/s 745 mmHg 94%
    11:00 -1°C° 0 mm 4 m/s 745 mmHg 91%
    12:00 -1°C° 0 mm 5 m/s 745 mmHg 89%
    13:00 -1°C° 0 mm 6 m/s 744 mmHg 86%
    14:00 -1°C° 0 mm 6 m/s 744 mmHg 83%
    15:00 -1°C° 0 mm 7 m/s 743 mmHg 81%
    16:00 -1°C° 0.1 mm 7 m/s 742 mmHg 85%
    17:00 -1°C° 0.1 mm 7 m/s 742 mmHg 88%
    18:00 -2°C° 0.1 mm 7 m/s 741 mmHg 92%
    19:00 -1°C° 0.3 mm 7 m/s 741 mmHg 93%
    20:00 -1°C° 0.3 mm 8 m/s 740 mmHg 94%
    21:00 -1°C° 0.3 mm 8 m/s 740 mmHg 94%
    22:00 -1°C° 0.1 mm 8 m/s 740 mmHg 93%
    23:00 -1°C° 0.1 mm 8 m/s 739 mmHg 93%

    Après-demain, 24 Février, Lundi

    Heure Température Précipitation Vent Pression Humidité
    00:00 0°C° 0.1 mm 8 m/s 738 mmHg 92%
    01:00 -1°C° 0.1 mm 7 m/s 738 mmHg 91%
    02:00 -1°C° 0.1 mm 6 m/s 738 mmHg 90%
    03:00 -1°C° 0.1 mm 6 m/s 738 mmHg 89%
    04:00 -1°C° 0 mm 6 m/s 737 mmHg 91%
    05:00 0°C° 0 mm 5 m/s 736 mmHg 92%
    06:00 0°C° 0 mm 5 m/s 736 mmHg 94%
    07:00 -1°C° 0.1 mm 6 m/s 735 mmHg 94%
    08:00 -1°C° 0.1 mm 7 m/s 734 mmHg 93%
    09:00 0°C° 0.1 mm 8 m/s 733 mmHg 93%
    10:00 0°C° 0.3 mm 9 m/s 732 mmHg 94%
    11:00 0°C° 0.3 mm 10 m/s 730 mmHg 94%
    12:00 0°C° 0.3 mm 10 m/s 729 mmHg 95%
    13:00 0°C° 1.3 mm 10 m/s 728 mmHg 95%
    14:00 0°C° 1.3 mm 10 m/s 726 mmHg 96%
    15:00 0°C° 1.3 mm 10 m/s 725 mmHg 96%
    16:00 0°C° 0.7 mm 8 m/s 724 mmHg 96%
    17:00 +1°C° 0.7 mm 6 m/s 724 mmHg 96%
    18:00 +3°C° 0.7 mm 4 m/s 723 mmHg 96%
    19:00 +1°C° 1.8 mm 4 m/s 723 mmHg 96%
    20:00 +1°C° 1.8 mm 4 m/s 724 mmHg 97%
    21:00 +1°C° 1.8 mm 3 m/s 724 mmHg 97%
    22:00 -1°C° 2.5 mm 6 m/s 725 mmHg 97%
    23:00 -3°C° 2.5 mm 10 m/s 726 mmHg 97%

    25 Février, Mardi

    Heure Température Précipitation Vent Pression Humidité
    00:00 -5°C° 2.5 mm 13 m/s 727 mmHg 97%
    01:00 -5°C° 0.6 mm 12 m/s 728 mmHg 92%
    02:00 -5°C° 0.6 mm 12 m/s 730 mmHg 87%
    03:00 -5°C° 0.6 mm 12 m/s 732 mmHg 82%
    04:00 -4°C° 0 mm 11 m/s 733 mmHg 81%
    05:00 -4°C° 0 mm 10 m/s 735 mmHg 80%
    06:00 -5°C° 0 mm 9 m/s 736 mmHg 79%
    07:00 -5°C° 0 mm 8 m/s 738 mmHg 79%
    08:00 -5°C° 0 mm 8 m/s 739 mmHg 78%
    09:00 -5°C° 0 mm 8 m/s 740 mmHg 78%
    10:00 -4°C° 0 mm 7 m/s 741 mmHg 75%
    11:00 -3°C° 0 mm 7 m/s 741 mmHg 73%
    12:00 -2°C° 0 mm 6 m/s 742 mmHg 70%
    13:00 -1°C° 0 mm 6 m/s 742 mmHg 69%
    14:00 -1°C° 0 mm 6 m/s 743 mmHg 67%
    15:00 +1°C° 0 mm 5 m/s 743 mmHg 66%
    16:00 0°C° 0 mm 4 m/s 743 mmHg 68%
    17:00 0°C° 0 mm 4 m/s 743 mmHg 70%
    18:00 0°C° 0 mm 3 m/s 743 mmHg 72%
    19:00 0°C° 0 mm 3 m/s 743 mmHg 74%
    20:00 0°C° 0 mm 3 m/s 743 mmHg 76%
    21:00 -1°C° 0 mm 3 m/s 743 mmHg 77%
    22:00 -2°C° 0 mm 4 m/s 742 mmHg 79%
    23:00 -2°C° 0 mm 4 m/s 742 mmHg 81%

    26 Février, Mercredi

    Heure Température Précipitation Vent Pression Humidité
    00:00 -2°C° 0 mm 4 m/s 742 mmHg 82%
    01:00 -1°C° 0 mm 4 m/s 742 mmHg 84%
    02:00 -1°C° 0 mm 5 m/s 741 mmHg 85%
    03:00 -1°C° 0 mm 5 m/s 741 mmHg 86%
    04:00 -1°C° 0 mm 5 m/s 741 mmHg 86%
    05:00 -1°C° 0 mm 5 m/s 740 mmHg 87%
    06:00 -1°C° 0 mm 5 m/s 740 mmHg 87%
    07:00 -1°C° 0 mm 5 m/s 740 mmHg 85%
    08:00 -1°C° 0 mm 6 m/s 740 mmHg 83%
    09:00 -1°C° 0 mm 6 m/s 740 mmHg 81%
    10:00 0°C° 0 mm 7 m/s 740 mmHg 79%
    11:00 +2°C° 0 mm 7 m/s 739 mmHg 77%
    12:00 +3°C° 0 mm 7 m/s 739 mmHg 75%
    13:00 +4°C° 0 mm 8 m/s 739 mmHg 72%
    14:00 +4°C° 0 mm 8 m/s 738 mmHg 68%
    15:00 +5°C° 0 mm 8 m/s 738 mmHg 65%
    16:00 +4°C° 0 mm 8 m/s 738 mmHg 67%
    17:00 +2°C° 0 mm 8 m/s 737 mmHg 69%
    18:00 +3°C° 0 mm 7 m/s 737 mmHg 71%
    19:00 +2°C° 0 mm 7 m/s 737 mmHg 71%
    20:00 +2°C° 0 mm 7 m/s 737 mmHg 72%
    21:00 +2°C° 0 mm 7 m/s 737 mmHg 73%
    22:00 +2°C° 0 mm 7 m/s 737 mmHg 72%
    23:00 0°C° 0 mm 7 m/s 737 mmHg 72%

    27 Février, Jeudi

    Heure Température Précipitation Vent Pression Humidité
    00:00 +1°C° 0 mm 6 m/s 737 mmHg 72%
    01:00 +1°C° 0 mm 6 m/s 736 mmHg 72%
    02:00 -1°C° 0 mm 6 m/s 736 mmHg 73%
    03:00 0°C° 0 mm 5 m/s 736 mmHg 74%
    04:00 0°C° 0 mm 5 m/s 736 mmHg 77%
    05:00 0°C° 0 mm 5 m/s 735 mmHg 79%
    06:00 0°C° 0 mm 5 m/s 735 mmHg 82%
    07:00 +1°C° 0 mm 6 m/s 735 mmHg 82%
    08:00 +1°C° 0 mm 6 m/s 735 mmHg 83%
    09:00 +2°C° 0 mm 6 m/s 735 mmHg 83%
    10:00 +3°C° 0 mm 6 m/s 735 mmHg 78%
    11:00 +5°C° 0 mm 6 m/s 735 mmHg 72%
    12:00 +8°C° 0 mm 6 m/s 735 mmHg 66%
    13:00 +8°C° 0 mm 6 m/s 735 mmHg 65%
    14:00 +8°C° 0 mm 7 m/s 735 mmHg 63%
    15:00 +8°C° 0 mm 7 m/s 735 mmHg 61%
    16:00 +8°C° 0 mm 6 m/s 735 mmHg 67%
    17:00 +7°C° 0 mm 6 m/s 735 mmHg 72%
    18:00 +6°C° 0 mm 5 m/s 735 mmHg 77%
    19:00 +6°C° 0 mm 5 m/s 735 mmHg 81%
    20:00 +5°C° 0 mm 5 m/s 735 mmHg 84%
    21:00 +5°C° 0 mm 4 m/s 736 mmHg 88%
    22:00 +4°C° 0 mm 4 m/s 736 mmHg 89%
    23:00 +4°C° 0 mm 4 m/s 736 mmHg 91%
    Voir plus